Location: Caser�o Prados
(40.7553°N, 4.1992°W)
Time: 06:55:04
(UTC+00:00)

Daily predictions for brighter satellites

Satellite Brightness Start Highest point End
(mag) Time Altitude Azimuth Time Altitude Azimuth Time Altitude Azimuth
Cosmos 2154 Rocket 4.2 18:31:09 10° S 18:37:20 81° W 18:43:34 10° N
H-2A R/B 3.8 18:35:22 10° N 18:39:08 36° WNW 18:42:57 10° SW
MOS 1 Rocket 4.3 18:35:11 10° N 18:40:22 62° WNW 18:45:42 10° SSW
Cosmos 1500 3.3 18:38:29 10° S 18:42:12 77° W 18:45:57 10° N
SeaSat 1 3.6 18:40:56 10° ENE 18:44:41 22° ESE 18:48:26 10° SSE
Cosmos 1470 Rocket 4.4 18:40:55 10° SSW 18:45:18 59° W 18:49:41 10° N
Cosmos 1689 Rocket 2.6 18:44:16 10° NNE 18:46:56 33° E 18:49:35 10° SSE
SAR-Lupe-4 4.1 18:46:00 10° NNE 18:49:20 36° E 18:52:39 10° SSE
Cosmos 192 4.3 18:45:03 10° SSW 18:49:55 75° ESE 18:54:51 10° NNE
Cosmos 2360 Rocket 3.4 18:45:52 10° SW 18:51:16 46° WNW 18:56:45 10° NNE
USA 234 4.4 18:50:41 10° ENE 18:55:24 21° ESE 19:00:07 10° S
USA 238 DEB 4.0 18:50:06 10° S 18:56:04 40° ESE 19:02:15 10° NE
IRS-1C Rocket 4.2 18:50:53 10° SSE 18:56:08 90° SW 19:01:28 10° NNW
USA 238 4.0 18:50:14 10° S 18:56:10 39° ESE 19:02:21 10° NE
SL-8 Rocket 4.1 18:50:18 10° SSE 18:56:21 57° E 19:02:22 10° NNE
Cosmos 1238 Rocket 3.9 18:53:49 10° SE 18:56:59 22° E 18:59:49 10° NE
Meteor 1-11 Rocket 4.0 18:53:04 10° SSE 18:58:27 47° E 19:03:46 10° NNE
Cosmos 2237 Rocket 3.2 18:55:09 10° SSE 18:59:33 24° E 19:03:58 10° NE
CZ-4B R/B 3.2 18:58:22 10° N 19:01:12 33° WNW 19:04:04 10° SW
Cosmos 1703 Rocket 3.5 18:57:59 10° N 19:02:22 79° E 19:06:42 10° S
Cosmos 1844 4.0 18:56:57 10° NNW 19:02:41 75° WSW 19:08:19 10° SSE
Cosmos 2278 Rocket 3.2 18:59:58 10° N 19:04:44 27° NE 19:08:50 13° ESE
Cosmos 1933 Rocket 4.5 19:01:22 10° SSW 19:05:37 53° W 19:09:57 10° N
Meteor 1-5 Rocket 4.4 19:03:57 10° SSW 19:09:20 77° W 19:14:57 10° N
SAR-Lupe-1 4.0 19:06:24 10° NNE 19:10:00 72° ESE 19:13:34 10° S
Okean-O 2.6 19:06:01 10° SSE 19:10:27 89° WSW 19:14:55 10° NNW
Meteor 1-13 Rocket 4.3 19:04:45 10° N 19:10:37 61° ENE 19:16:19 10° SSE
Cosmos 1339 Rocket 4.5 19:05:49 10° N 19:12:03 70° E 19:18:22 10° SSE
DELTA 2 R/B (1) 3.6 19:07:28 10° WSW 19:13:00 73° S 19:17:23 17° E
SME Rocket 4.5 19:08:27 10° NNE 19:13:41 27° E 19:17:36 10° SSE
Cosmos 1536 2.9 19:09:55 10° SSE 19:13:45 49° E 19:17:36 10° NNE
SL-4 R/B 1.5 19:10:51 10° NW 19:14:23 84° NE 19:16:56 17° SE
Cosmos 2366 rocket 4.0 19:08:59 10° S 19:15:13 65° E 19:21:31 10° NNE
HJ-1C 3.2 19:12:05 10° SSE 19:15:22 75° ENE 19:18:39 10° N
PSLV R/B 4.2 19:11:43 10° N 19:15:46 70° WNW 19:19:46 10° SSW
Okean 1-7 3.5 19:17:29 10° NNW 19:21:48 65° W 19:26:02 10° S
Cosmos 2333 Rocket 2.8 19:16:42 10° SW 19:22:18 60° WNW 19:27:59 10° NNE
Cosmos 2221 Rocket 4.3 19:18:30 10° NNE 19:22:28 31° ENE 19:25:28 15° SE
USA 186 3.2 19:24:42 16° NE 19:24:42 16° NE 19:25:40 10° NNE
NOSS 3-2 (A) 3.2 19:18:43 10° SSW 19:24:11 75° ESE 19:30:25 10° NE
ARGOS 3.2 19:19:05 10° SSE 19:24:31 86° WSW 19:29:59 10° NNW
YAOGAN 1 3.3 19:20:55 10° S 19:25:09 56° W 19:29:25 10° NNW
Abrixas rocket 1.6 19:25:27 10° NW 19:27:53 57° NNE 19:28:20 46° ENE
ERS-2 2.7 19:25:47 10° N 19:29:23 59° WNW 19:32:58 10° SSW
Okean 3 3.4 19:25:42 10° N 19:29:59 73° E 19:34:16 10° SSE
Gbstr 26 Del rocket 4.4 19:26:44 10° NW 19:30:59 33° NNE 19:33:52 20° ENE
SJ 16-02 1.6 19:28:10 10° N 19:32:26 46° ENE 19:35:04 21° SE
CENTAUR R/B 2.4 19:27:14 10° SSW 19:32:43 56° ESE 19:39:15 10° NE
Cosmos 1378 3.0 19:30:24 10° N 19:34:06 62° E 19:37:45 10° SSE
Cosmos 2219 Rocket 3.0 19:28:58 10° SW 19:34:25 54° WNW 19:39:56 10° NNE
Helios 1A Rocket 3.1 19:33:00 10° S 19:37:02 74° WSW 19:41:04 10° NNW
X-37B 2.9 19:35:27 10° S 19:36:15 13° SSE 19:36:15 13° SSE
Cosmos 1821 Rocket 4.3 19:33:23 10° SSE 19:39:09 42° E 19:44:53 10° NNE
CZ-2C R/B 2.8 19:34:04 10° N 19:39:29 79° WNW 19:44:45 10° SSW
Lacrosse 4 Rocket 3.6 19:37:12 10° WSW 19:41:02 28° NW 19:44:56 10° N
Cosmos 1898 Rocket 4.4 19:38:28 10° N 19:43:02 29° ENE 19:43:55 28° E
Hubble Space Telescope 2.9 19:41:17 10° SW 19:43:34 15° S 19:44:44 13° SSE
CZ-4 R/B 3.6 19:40:24 10° SSW 19:43:41 26° W 19:47:01 10° NW
Cosmos 1980 3.6 19:38:45 10° S 19:44:16 60° ESE 19:49:50 10° NNE
Cosmos 1727 Rocket 3.9 19:38:45 10° N 19:44:56 67° E 19:51:08 10° SSE
ASTEX 1 3.3 19:41:14 10° NNE 19:46:03 58° E 19:50:52 10° S
FALCON 9 DEB 3.0 19:46:09 10° NW 19:49:17 55° NE 19:49:20 55° NE
OBJECT-B 2.4 19:51:06 23° NNE 19:51:06 23° NNE 19:52:39 10° N
Cosmos 2218 Rocket 4.5 19:44:42 10° SSW 19:51:03 65° W 19:57:25 10° N
Resurs 01 Rocket 3.6 19:55:00 15° NE 19:55:00 15° NE 19:56:19 10° NNE
COSMOS 2428 3.8 19:48:27 10° SW 19:53:52 46° WNW 19:59:21 10° NNE
FALCON 9 DEB 2.9 19:53:04 10° NW 19:56:04 72° N 19:56:04 72° N
Cosmos 1743 2.6 19:55:34 10° S 19:59:26 87° E 20:03:20 10° N
H-2A R/B 4.2 19:55:06 10° SSW 19:59:45 28° W 20:04:25 10° NW
Ariane Rocket 3.1 19:58:23 39° ESE 19:59:49 51° ENE 20:04:46 10° N
USA 305 3.7 19:56:09 10° NW 20:00:06 35° NNE 20:00:25 35° NE
Cosmos 990 Rocket 4.2 19:55:11 10° N 20:00:12 48° ENE 20:01:07 43° E
Cosmos 1763 Rocket 3.5 19:55:10 10° S 20:00:23 59° ESE 20:05:37 10° NNE
Resurs 1-3 4.4 20:06:16 36° NE 20:06:16 36° NE 20:09:29 10° N
NOSS 3-2 (C) 3.2 20:01:08 10° SSW 20:06:39 88° ESE 20:12:57 10° NE
Cosmos 468 Rocket 3.9 20:08:33 10° SSW 20:13:51 84° ESE 20:19:09 10° NNE
USA 307 3.6 20:10:23 10° NW 20:14:07 40° NNE 20:14:07 40° NNE
USA 306 3.6 20:11:12 10° NW 20:14:57 42° NNE 20:14:57 42° NNE
Cosmos 1733 Rocket 3.3 20:13:01 10° SSW 20:17:19 69° W 20:21:42 10° N
SeaSat 1 3.3 20:17:38 10° NNE 20:22:24 49° WNW 20:27:07 10° SW
SJ-6B 3.1 20:22:24 60° SW 20:22:52 66° W 20:26:52 10° NNW
USA 308 3.7 20:21:11 10° NW 20:24:34 42° N 20:24:34 42° N
USA 81 4.2 20:24:44 10° S 20:29:58 72° W 20:35:15 10° N
Lacrosse 5 3.2 20:25:26 10° SSW 20:27:48 27° S 20:27:48 27° S
SPOT 3 Rocket 4.3 20:34:05 40° NNE 20:34:05 40° NNE 20:37:46 10° N
USA 234 3.1 20:36:25 41° NE 20:38:58 85° SE 20:45:31 10° SW
Cosmos 1943 Rocket 3.7 20:35:27 10° N 20:38:27 23° NNE 20:38:27 23° NNE
Cosmos 2237 Rocket 3.1 20:37:44 10° SW 20:43:14 49° WNW 20:48:46 10° NNE
Cosmos 1937 Rocket 4.0 20:38:56 10° NNW 20:42:47 49° N 20:42:47 49° N
Cosmos 2278 Rocket 3.1 20:43:37 10° NW 20:49:00 46° WSW 20:50:44 35° SSW
DELTA 2 R/B (1) 4.1 20:53:50 10° W 20:58:09 54° WSW 20:58:09 54° WSW
BREEZE-M DEB (TANK) 3.9 20:48:48 10° WNW 21:00:05 79° NW 21:00:05 79° NW
SJ 16-02 4.0 21:08:04 10° WNW 21:10:34 15° W 21:12:08 13° WSW
CENTAUR R/B 4.1 21:18:30 10° W 21:23:49 31° NW 21:30:00 10° NNE
BREEZE-M DEB (TANK) 4.4 21:24:53 10° NW 21:26:50 37° NW 21:26:50 37° NW
Resurs 01 Rocket 4.3 21:32:33 16° NW 21:32:33 16° NW 21:33:35 10° NNW
Cosmos 2369 Rocket 4.4 21:43:31 10° NNW 21:44:58 18° N 21:44:58 18° N
